Location: UFOWorks Observatory
(42.1050°N, 72.2350°W)
Time: 17:14:48
(UTC-05:00)

ISS - Visible Passes

Search period start: 02 December 2016 00:00
Search period end: 12 December 2016 00:00
Orbit: 401 x 410 km, 51.6° (Epoch: 03 December)

Date Brightness Start Highest point End Pass type
(mag) Time Alt. Az. Time Alt. Az. Time Alt. Az.
02 Dec -2.3 17:00:30 10° SSW 17:03:30 33° SE 17:06:08 12° ENE visible
02 Dec -1.2 18:36:55 10° W 18:38:49 26° WNW 18:38:49 26° WNW visible
03 Dec -2.9 17:44:45 10° WSW 17:48:00 56° NNW 17:49:07 34° NNE visible
04 Dec -3.3 16:52:47 10° SW 16:56:04 82° SSE 16:59:21 10° ENE visible
04 Dec -1.0 18:30:13 10° WNW 18:32:02 20° NW 18:32:02 20° NW visible
05 Dec -1.9 17:37:50 10° W 17:40:48 30° NNW 17:42:13 21° NNE visible
06 Dec -2.6 16:45:33 10° WSW 16:48:44 45° NNW 16:51:57 10° NE visible
06 Dec -0.8 18:23:34 10° NW 18:25:03 16° NNW 18:25:03 16° NNW visible
07 Dec -1.4 17:31:06 10° WNW 17:33:40 20° NNW 17:35:09 16° NNE visible
08 Dec -0.8 18:16:43 10° NW 18:17:55 14° NNW 18:17:55 14° NNW visible
09 Dec -1.2 17:24:22 10° NW 17:26:34 16° N 17:28:00 13° NNE visible
10 Dec -0.9 18:09:30 10° NW 18:10:45 15° NNW 18:10:45 15° NNW visible
11 Dec -1.2 17:17:21 10° NW 17:19:28 16° N 17:20:52 13° NNE visible
